QPF
0.02 0.04 0.06 0.07 0.07 0.06 0.06 0.06 0.07 0.12 0.12 0.15 0.20 0.23 0.27 0.31 0.34 0.30 0.22 0.18 0.16 0.17 0.21 0.22 0.23 0.22 0.24 0.28 0.28 0.25 0.24 0.23 0.24 0.24 0.20 0.13 0.12 0.12 0.12 0.11 0.10 0.10 0.10
0.04 0.06 0.09 0.10 0.11 0.13 0.14 0.13 0.11 0.10 0.10 0.13 0.19 0.24 0.26 0.26 0.28 0.28 0.24 0.19 0.16 0.14 0.15 0.15 0.16 0.16 0.16 0.17 0.18 0.16 0.17 0.17 0.19 0.20 0.20 0.17 0.15 0.12 0.11 0.11 0.10 0.09 0.08
0.03 0.05 0.09 0.10 0.11 0.11 0.11 0.14 0.16 0.15 0.14 0.16 0.23 0.26 0.27 0.28 0.29 0.27 0.22 0.17 0.14 0.10 0.08 0.10 0.11 0.13 0.14 0.13 0.14 0.15 0.17 0.17 0.19 0.21 0.19 0.17 0.15 0.13 0.12 0.09 0.07 0.06 0.06
0.03 0.03 0.04 0.04 0.05 0.05 0.05 0.06 0.07 0.09 0.11 0.14 0.15 0.18 0.20 0.23 0.25 0.22 0.18 0.15 0.13 0.09 0.08 0.09 0.12 0.14 0.15 0.16 0.16 0.15 0.16 0.18 0.20 0.21 0.21 0.20 0.15 0.12 0.13 0.11 0.08 0.07 0.06
0.03 0.04 0.03 0.04 0.04 0.04 0.03 0.04 0.04 0.03 0.05 0.08 0.11 0.12 0.13 0.14 0.12 0.12 0.12 0.12 0.12 0.11 0.11 0.12 0.13 0.13 0.14 0.17 0.18 0.16 0.15 0.16 0.20 0.23 0.25 0.26 0.21 0.14 0.12 0.13 0.11 0.09 0.08
0.04 0.03 0.02 0.03 0.03 0.02 0.01 0.01 0.01 0.02 0.05 0.06 0.08 0.10 0.11 0.10 0.08 0.08 0.09 0.10 0.11 0.11 0.11 0.11 0.10 0.12 0.12 0.12 0.13 0.13 0.13 0.14 0.16 0.19 0.21 0.20 0.20 0.18 0.14 0.13 0.13 0.13 0.13
0.03 0.03 0.02 0.03 0.02 0.02 0.01 0.01 0.01 0.02 0.03 0.05 0.05 0.06 0.07 0.07 0.05 0.05 0.06 0.08 0.09 0.09 0.09 0.11 0.10 0.10 0.10 0.09 0.11 0.12 0.12 0.11 0.12 0.14 0.17 0.18 0.16 0.15 0.16 0.16 0.15 0.14 0.14
0.03 0.03 0.02 0.02 0.02 0.01 0.01 0.01 0.01 0.02 0.03 0.03 0.03 0.03 0.04 0.04 0.04 0.05 0.06 0.06 0.08 0.08 0.08 0.10 0.11 0.10 0.10 0.09 0.09 0.09 0.07 0.06 0.07 0.08 0.10 0.13 0.14 0.13 0.12 0.13 0.13 0.13 0.12
0.03 0.02 0.01 0.01 0.01 0.01 0.01 0.01 0.01 0.02 0.02 0.02 0.02 0.02 0.03 0.03 0.03 0.04 0.05 0.05 0.05 0.07 0.09 0.09 0.09 0.09 0.09 0.09 0.08 0.07 0.05 0.04 0.04 0.04 0.04 0.06 0.08 0.09 0.08 0.08 0.08 0.10 0.10
0.03 0.02 0.01 0.00 0.00 0.00 0.00 0.01 0.01 0.01 0.01 0.01 0.01 0.01 0.02 0.03 0.03 0.03 0.04 0.04 0.03 0.04 0.04 0.05 0.06 0.07 0.06 0.06 0.07 0.06 0.05 0.04 0.03 0.03 0.03 0.04 0.05 0.06 0.06 0.07 0.08 0.07 0.07
0.02 0.02 0.01 0.00 0.00 0.00 0.00 0.00 0.00 0.00 0.00 0.01 0.01 0.01 0.02 0.02 0.02 0.02 0.03 0.03 0.02 0.03 0.03 0.03 0.03 0.03 0.03 0.03 0.04 0.04 0.03 0.03 0.02 0.02 0.02 0.02 0.03 0.04 0.04 0.05 0.07 0.07 0.07
0.01 0.01 0.01 0.01 0.00 0.00 0.00 0.00 0.00 0.00 0.00 0.00 0.01 0.01 0.01 0.02 0.02 0.03 0.02 0.02 0.02 0.02 0.03 0.02 0.02 0.03 0.03 0.03 0.03 0.03 0.03 0.02 0.02 0.01 0.01 0.02 0.02 0.02 0.03 0.04 0.05 0.06 0.06
0.01 0.02 0.02 0.01 0.01 0.00 0.00 0.00 0.00 0.00 0.00 0.00 0.01 0.01 0.01 0.02 0.02 0.03 0.02 0.01 0.01 0.02 0.02 0.02 0.02 0.02 0.02 0.02 0.03 0.02 0.02 0.02 0.02 0.02 0.01 0.01 0.01 0.01 0.01 0.02 0.03 0.03 0.04
0.02 0.02 0.03 0.02 0.01 0.01 0.00 0.00 0.01 0.00 0.00 0.01 0.01 0.01 0.02 0.02 0.02 0.02 0.03 0.02 0.02 0.03 0.04 0.04 0.03 0.02 0.02 0.01 0.02 0.02 0.02 0.02 0.02 0.02 0.01 0.01 0.01 0.01 0.02 0.02 0.03 0.04 0.04
0.02 0.02 0.02 0.02 0.02 0.02 0.01 0.01 0.01 0.01 0.01 0.02 0.02 0.02 0.02 0.03 0.03 0.04 0.04 0.02 0.02 0.03 0.03 0.03 0.04 0.03 0.03 0.03 0.02 0.02 0.02 0.01 0.02 0.02 0.02 0.02 0.02 0.02 0.02 0.02 0.02 0.02 0.03
0.02 0.02 0.03 0.03 0.03 0.03 0.03 0.01 0.01 0.01 0.01 0.02 0.03 0.02 0.02 0.02 0.03 0.03 0.03 0.03 0.03 0.03 0.03 0.03 0.04 0.05 0.05 0.04 0.03 0.02 0.02 0.02 0.02 0.02 0.01 0.01 0.01 0.01 0.02 0.02 0.02 0.01 0.01
0.02 0.03 0.04 0.04 0.03 0.03 0.03 0.03 0.03 0.02 0.02 0.03 0.03 0.02 0.02 0.03 0.03 0.03 0.02 0.03 0.03 0.02 0.02 0.02 0.03 0.04 0.05 0.05 0.04 0.03 0.02 0.02 0.03 0.02 0.01 0.01 0.01 0.02 0.01 0.01 0.01 0.01 0.01
0.03 0.04 0.04 0.03 0.03 0.03 0.04 0.04 0.04 0.05 0.04 0.03 0.03 0.02 0.02 0.03 0.04 0.03 0.02 0.03 0.03 0.02 0.03 0.03 0.03 0.03 0.03 0.04 0.04 0.03 0.02 0.01 0.01 0.02 0.01 0.01 0.01 0.01 0.01 0.01 0.01 0.01 0.01
0.05 0.05 0.04 0.03 0.02 0.02 0.03 0.03 0.04 0.04 0.03 0.03 0.03 0.03 0.02 0.03 0.04 0.04 0.03 0.03 0.03 0.03 0.03 0.03 0.03 0.03 0.03 0.03 0.03 0.03 0.02 0.02 0.01 0.01 0.01 0.02 0.01 0.01 0.01 0.01 0.01 0.01 0.01
0.04 0.04 0.03 0.02 0.02 0.02 0.02 0.02 0.03 0.03 0.03 0.03 0.03 0.03 0.03 0.03 0.03 0.03 0.03 0.03 0.03 0.03 0.03 0.02 0.03 0.02 0.02 0.03 0.03 0.02 0.02 0.02 0.01 0.01 0.01 0.01 0.01 0.01 0.01 0.01 0.01 0.01 0.00
0.03 0.03 0.02 0.02 0.02 0.02 0.02 0.03 0.03 0.03 0.02 0.02 0.03 0.03 0.03 0.03 0.02 0.02 0.02 0.02 0.02 0.01 0.01 0.01 0.02 0.01 0.02 0.02 0.03 0.02 0.01 0.01 0.01 0.01 0.01 0.00 0.00 0.00 0.00 0.00 0.00 0.00 0.00
0.03 0.02 0.02 0.02 0.02 0.03 0.03 0.03 0.03 0.02 0.02 0.02 0.03 0.03 0.03 0.02 0.02 0.01 0.01 0.01 0.01 0.01 0.01 0.01 0.01 0.01 0.01 0.01 0.01 0.02 0.01 0.01 0.01 0.01 0.00 0.00 0.00 0.00 0.00 0.00 0.00 0.00 0.00
0.02 0.02 0.03 0.03 0.03 0.03 0.02 0.02 0.02 0.02 0.01 0.01 0.02 0.03 0.03 0.02 0.01 0.01 0.01 0.01 0.01 0.00 0.01 0.01 0.01 0.01 0.01 0.00 0.00 0.01 0.01 0.01 0.00 0.00 0.00 0.00 0.00 0.00 0.00 0.00 0.00 0.00 0.00
0.02 0.02 0.02 0.03 0.03 0.02 0.02 0.02 0.03 0.02 0.03 0.02 0.03 0.04 0.04 0.02 0.01 0.00 0.00 0.00 0.00 0.00 0.00 0.00 0.01 0.00 0.00 0.00 0.00 0.00 0.00 0.00 0.00 0.00 0.00 0.00 0.00 0.00 0.00 0.00 0.00 0.00 0.00
0.02 0.02 0.02 0.02 0.02 0.02 0.02 0.03 0.03 0.02 0.03 0.03 0.03 0.02 0.02 0.02 0.01 0.00 0.00 0.01 0.01 0.00 0.00 0.00 0.00 0.00 0.00 0.00 0.00 0.00 0.00 0.00 0.00 0.00 0.00 0.00 0.01 0.01 0.01 0.01 0.00 0.00 0.00
0.01 0.01 0.01 0.01 0.02 0.03 0.03 0.02 0.01 0.01 0.01 0.02 0.02 0.01 0.01 0.01 0.00 0.00 0.00 0.00 0.01 0.00 0.00 0.00 0.00 0.00 0.00 0.00 0.00 0.00 0.00 0.00 0.00 0.00 0.00 0.00 0.00 0.01 0.02 0.01 0.01 0.00 0.00
MSLP
1014.81 1014.70 1014.61 1014.51 1014.41 1014.30 1014.21 1014.14 1014.10 1014.12 1014.18 1014.28 1014.43 1014.62 1014.85 1015.11 1015.40 1015.72 1016.05 1016.40 1016.74 1017.06 1017.34 1017.57 1017.76 1017.91 1018.04 1018.20 1018.41 1018.72 1019.14 1019.68 1020.32 1021.04 1021.79 1022.53 1023.19 1023.75 1024.18 1024.47 1024.64 1024.72 1024.73
1015.40 1015.36 1015.30 1015.20 1015.06 1014.88 1014.70 1014.54 1014.41 1014.35 1014.35 1014.42 1014.54 1014.71 1014.92 1015.15 1015.40 1015.67 1015.97 1016.28 1016.60 1016.92 1017.22 1017.47 1017.67 1017.84 1017.97 1018.11 1018.29 1018.54 1018.91 1019.42 1020.05 1020.78 1021.58 1022.39 1023.15 1023.82 1024.37 1024.79 1025.06 1025.23 1025.30
1015.88 1015.94 1015.94 1015.87 1015.71 1015.47 1015.20 1014.94 1014.71 1014.56 1014.50 1014.52 1014.62 1014.77 1014.95 1015.15 1015.37 1015.61 1015.87 1016.16 1016.46 1016.77 1017.07 1017.34 1017.56 1017.73 1017.86 1017.99 1018.14 1018.35 1018.67 1019.13 1019.73 1020.44 1021.25 1022.10 1022.93 1023.70 1024.36 1024.88 1025.28 1025.55 1025.71
1016.24 1016.42 1016.52 1016.49 1016.33 1016.06 1015.72 1015.35 1015.03 1014.79 1014.65 1014.62 1014.67 1014.80 1014.96 1015.15 1015.35 1015.56 1015.79 1016.04 1016.32 1016.62 1016.91 1017.19 1017.43 1017.61 1017.76 1017.88 1018.01 1018.19 1018.47 1018.87 1019.42 1020.09 1020.87 1021.72 1022.59 1023.41 1024.15 1024.78 1025.29 1025.67 1025.94
1016.49 1016.82 1017.03 1017.08 1016.95 1016.66 1016.26 1015.81 1015.39 1015.06 1014.84 1014.74 1014.76 1014.86 1015.00 1015.18 1015.36 1015.55 1015.75 1015.98 1016.23 1016.51 1016.80 1017.08 1017.32 1017.53 1017.69 1017.82 1017.95 1018.11 1018.34 1018.69 1019.17 1019.78 1020.51 1021.32 1022.17 1023.01 1023.80 1024.51 1025.11 1025.61 1025.99
1016.66 1017.15 1017.50 1017.65 1017.57 1017.29 1016.85 1016.34 1015.84 1015.42 1015.13 1014.97 1014.94 1015.00 1015.13 1015.29 1015.46 1015.63 1015.81 1016.01 1016.24 1016.49 1016.76 1017.04 1017.30 1017.52 1017.70 1017.85 1017.99 1018.14 1018.34 1018.64 1019.04 1019.57 1020.21 1020.95 1021.74 1022.55 1023.35 1024.10 1024.78 1025.38 1025.89
1016.79 1017.44 1017.94 1018.21 1018.21 1017.96 1017.52 1016.97 1016.40 1015.91 1015.55 1015.33 1015.25 1015.28 1015.39 1015.53 1015.69 1015.84 1016.00 1016.17 1016.36 1016.59 1016.84 1017.10 1017.37 1017.61 1017.82 1017.99 1018.14 1018.29 1018.47 1018.71 1019.04 1019.47 1020.01 1020.64 1021.34 1022.10 1022.87 1023.63 1024.36 1025.04 1025.65
1016.89 1017.70 1018.35 1018.74 1018.84 1018.65 1018.23 1017.67 1017.07 1016.54 1016.12 1015.84 1015.72 1015.72 1015.80 1015.92 1016.06 1016.19 1016.32 1016.46 1016.62 1016.81 1017.04 1017.29 1017.55 1017.81 1018.03 1018.23 1018.40 1018.55 1018.72 1018.91 1019.17 1019.50 1019.92 1020.43 1021.03 1021.69 1022.41 1023.15 1023.91 1024.65 1025.34
1016.97 1017.92 1018.71 1019.24 1019.44 1019.33 1018.95 1018.42 1017.82 1017.26 1016.80 1016.49 1016.33 1016.29 1016.34 1016.44 1016.56 1016.67 1016.77 1016.88 1017.00 1017.16 1017.36 1017.59 1017.84 1018.09 1018.34 1018.56 1018.74 1018.91 1019.05 1019.21 1019.40 1019.64 1019.95 1020.35 1020.83 1021.39 1022.04 1022.75 1023.50 1024.26 1025.02
1017.01 1018.09 1019.01 1019.65 1019.96 1019.93 1019.63 1019.14 1018.57 1018.02 1017.55 1017.22 1017.03 1016.96 1016.98 1017.06 1017.14 1017.23 1017.30 1017.38 1017.47 1017.59 1017.76 1017.96 1018.19 1018.45 1018.70 1018.93 1019.13 1019.30 1019.45 1019.59 1019.73 1019.90 1020.12 1020.41 1020.78 1021.25 1021.82 1022.47 1023.19 1023.96 1024.74
1017.02 1018.20 1019.21 1019.95 1020.35 1020.42 1020.20 1019.78 1019.26 1018.74 1018.29 1017.96 1017.76 1017.67 1017.66 1017.71 1017.76 1017.82 1017.87 1017.92 1017.98 1018.07 1018.20 1018.38 1018.59 1018.83 1019.08 1019.33 1019.54 1019.73 1019.88 1020.01 1020.13 1020.25 1020.41 1020.62 1020.92 1021.30 1021.79 1022.38 1023.06 1023.80 1024.58
1017.01 1018.25 1019.32 1020.13 1020.61 1020.76 1020.63 1020.30 1019.85 1019.39 1018.97 1018.66 1018.45 1018.35 1018.32 1018.33 1018.36 1018.39 1018.42 1018.44 1018.48 1018.54 1018.65 1018.81 1019.00 1019.23 1019.48 1019.73 1019.96 1020.16 1020.33 1020.47 1020.58 1020.69 1020.82 1020.99 1021.22 1021.54 1021.96 1022.49 1023.11 1023.81 1024.56
1017.00 1018.27 1019.37 1020.21 1020.74 1020.96 1020.91 1020.67 1020.31 1019.92 1019.56 1019.27 1019.08 1018.96 1018.91 1018.91 1018.91 1018.92 1018.93 1018.94 1018.96 1019.01 1019.10 1019.24 1019.42 1019.65 1019.89 1020.14 1020.38 1020.60 1020.79 1020.95 1021.08 1021.20 1021.33 1021.48 1021.68 1021.96 1022.33 1022.80 1023.36 1024.00 1024.69
1017.03 1018.29 1019.38 1020.22 1020.77 1021.05 1021.07 1020.92 1020.65 1020.34 1020.04 1019.80 1019.62 1019.51 1019.45 1019.42 1019.41 1019.40 1019.39 1019.40 1019.42 1019.47 1019.56 1019.69 1019.87 1020.08 1020.32 1020.57 1020.82 1021.06 1021.27 1021.46 1021.62 1021.77 1021.91 1022.07 1022.26 1022.51 1022.84 1023.26 1023.75 1024.32 1024.94
1017.14 1018.36 1019.40 1020.21 1020.76 1021.07 1021.16 1021.08 1020.90 1020.68 1020.45 1020.25 1020.10 1019.99 1019.93 1019.88 1019.86 1019.84 1019.84 1019.85 1019.88 1019.94 1020.04 1020.18 1020.35 1020.56 1020.80 1021.05 1021.30 1021.54 1021.78 1021.99 1022.19 1022.36 1022.54 1022.71 1022.91 1023.15 1023.45 1023.81 1024.25 1024.74 1025.28
1017.34 1018.49 1019.46 1020.22 1020.75 1021.07 1021.21 1021.21 1021.11 1020.96 1020.80 1020.66 1020.53 1020.44 1020.37 1020.32 1020.29 1020.28 1020.28 1020.31 1020.36 1020.45 1020.56 1020.71 1020.90 1021.10 1021.33 1021.57 1021.82 1022.07 1022.31 1022.54 1022.76 1022.97 1023.18 1023.37 1023.59 1023.82 1024.09 1024.41 1024.77 1025.19 1025.64
1017.63 1018.68 1019.57 1020.26 1020.76 1021.09 1021.26 1021.32 1021.29 1021.22 1021.13 1021.03 1020.94 1020.86 1020.80 1020.76 1020.73 1020.73 1020.75 1020.80 1020.89 1021.00 1021.14 1021.31 1021.50 1021.71 1021.92 1022.15 1022.39 1022.62 1022.86 1023.10 1023.34 1023.57 1023.79 1024.01 1024.23 1024.46 1024.70 1024.97 1025.28 1025.62 1025.98
1017.96 1018.91 1019.71 1020.33 1020.80 1021.12 1021.32 1021.42 1021.46 1021.46 1021.42 1021.38 1021.32 1021.27 1021.22 1021.19 1021.18 1021.20 1021.25 1021.33 1021.45 1021.59 1021.77 1021.95 1022.15 1022.35 1022.55 1022.76 1022.97 1023.19 1023.42 1023.65 1023.89 1024.13 1024.37 1024.59 1024.82 1025.03 1025.25 1025.48 1025.72 1025.99 1026.27
1018.29 1019.14 1019.85 1020.42 1020.84 1021.16 1021.38 1021.53 1021.62 1021.67 1021.69 1021.69 1021.67 1021.65 1021.63 1021.62 1021.63 1021.67 1021.75 1021.87 1022.02 1022.20 1022.40 1022.60 1022.81 1023.00 1023.19 1023.37 1023.56 1023.75 1023.96 1024.18 1024.41 1024.64 1024.88 1025.11 1025.33 1025.53 1025.72 1025.91 1026.10 1026.29 1026.49
1018.58 1019.34 1019.98 1020.48 1020.88 1021.19 1021.43 1021.61 1021.75 1021.85 1021.92 1021.96 1021.98 1021.99 1022.00 1022.01 1022.06 1022.13 1022.24 1022.40 1022.58 1022.79 1023.01 1023.22 1023.43 1023.62 1023.79 1023.95 1024.11 1024.28 1024.46 1024.65 1024.87 1025.09 1025.32 1025.55 1025.75 1025.94 1026.11 1026.26 1026.39 1026.52 1026.65
1018.80 1019.50 1020.07 1020.53 1020.91 1021.21 1021.46 1021.67 1021.84 1021.98 1022.09 1022.17 1022.23 1022.28 1022.32 1022.37 1022.44 1022.55 1022.70 1022.88 1023.09 1023.32 1023.56 1023.78 1023.99 1024.17 1024.32 1024.46 1024.60 1024.74 1024.90 1025.07 1025.27 1025.48 1025.70 1025.91 1026.11 1026.28 1026.42 1026.53 1026.62 1026.70 1026.76
1018.98 1019.62 1020.14 1020.57 1020.93 1021.23 1021.49 1021.71 1021.91 1022.08 1022.22 1022.34 1022.43 1022.51 1022.59 1022.68 1022.79 1022.93 1023.10 1023.31 1023.54 1023.79 1024.03 1024.26 1024.46 1024.63 1024.77 1024.89 1025.01 1025.13 1025.27 1025.43 1025.60 1025.80 1026.00 1026.20 1026.38 1026.53 1026.65 1026.74 1026.79 1026.82 1026.83
1019.15 1019.73 1020.22 1020.63 1020.97 1021.27 1021.53 1021.77 1021.98 1022.17 1022.34 1022.48 1022.61 1022.72 1022.84 1022.96 1023.10 1023.27 1023.47 1023.69 1023.94 1024.19 1024.43 1024.65 1024.84 1025.00 1025.13 1025.24 1025.34 1025.45 1025.57 1025.71 1025.87 1026.04 1026.23 1026.41 1026.57 1026.70 1026.80 1026.86 1026.89 1026.89 1026.87
1019.34 1019.88 1020.34 1020.73 1021.06 1021.35 1021.61 1021.85 1022.07 1022.27 1022.45 1022.62 1022.78 1022.93 1023.07 1023.23 1023.40 1023.59 1023.81 1024.04 1024.29 1024.54 1024.77 1024.98 1025.16 1025.31 1025.43 1025.53 1025.61 1025.70 1025.81 1025.93 1026.06 1026.22 1026.37 1026.53 1026.67 1026.78 1026.86 1026.91 1026.92 1026.91 1026.87
1019.59 1020.10 1020.53 1020.90 1021.22 1021.50 1021.75 1021.98 1022.20 1022.40 1022.60 1022.78 1022.96 1023.14 1023.32 1023.50 1023.70 1023.91 1024.14 1024.38 1024.62 1024.85 1025.07 1025.27 1025.43 1025.57 1025.67 1025.76 1025.83 1025.91 1025.99 1026.08 1026.19 1026.31 1026.43 1026.56 1026.67 1026.76 1026.82 1026.86 1026.87 1026.85 1026.81
1019.91 1020.38 1020.79 1021.14 1021.44 1021.70 1021.94 1022.16 1022.37 1022.57 1022.78 1022.98 1023.17 1023.37 1023.58 1023.79 1024.00 1024.23 1024.46 1024.70 1024.94 1025.16 1025.36 1025.54 1025.69 1025.80 1025.89 1025.96 1026.02 1026.07 1026.12 1026.18 1026.25 1026.33 1026.41 1026.50 1026.58 1026.64 1026.69 1026.72 1026.73 1026.73 1026.70
Thickness
5682 5682 5682 5683 5684 5685 5685 5684 5684 5685 5685 5683 5682 5681 5679 5680 5679 5679 5679 5678 5679 5679 5679 5680 5680 5680 5680 5679 5678 5678 5677 5677 5676 5673 5671 5670 5671 5671 5670 5670 5670 5668 5667
5674 5673 5672 5673 5674 5674 5674 5675 5676 5676 5676 5676 5675 5674 5671 5671 5670 5671 5671 5670 5669 5670 5671 5671 5671 5673 5673 5673 5672 5672 5671 5670 5670 5668 5665 5662 5661 5662 5662 5662 5661 5660 5658
5664 5663 5662 5662 5663 5664 5664 5666 5666 5666 5666 5666 5665 5665 5662 5662 5661 5661 5661 5661 5661 5662 5663 5664 5664 5666 5667 5667 5666 5667 5667 5665 5664 5664 5662 5658 5656 5654 5652 5652 5652 5650 5649
5657 5654 5653 5652 5652 5653 5654 5655 5656 5656 5656 5656 5656 5655 5653 5651 5650 5650 5650 5651 5652 5654 5656 5656 5656 5657 5659 5660 5660 5661 5661 5660 5658 5657 5658 5657 5656 5651 5646 5643 5642 5641 5640
5650 5646 5644 5643 5643 5643 5643 5644 5645 5645 5646 5646 5646 5645 5643 5641 5640 5640 5640 5641 5642 5643 5645 5646 5647 5649 5651 5652 5653 5654 5654 5653 5653 5651 5651 5649 5647 5647 5644 5638 5634 5632 5630
5643 5640 5637 5635 5634 5634 5634 5634 5634 5634 5634 5635 5635 5634 5633 5631 5630 5629 5629 5629 5631 5633 5635 5636 5638 5639 5641 5642 5644 5645 5645 5645 5645 5645 5644 5643 5641 5639 5638 5633 5628 5624 5620
5637 5633 5629 5626 5625 5624 5624 5623 5623 5623 5622 5623 5623 5623 5622 5621 5619 5618 5618 5618 5620 5621 5624 5625 5627 5628 5630 5632 5634 5635 5635 5636 5635 5636 5636 5636 5635 5634 5632 5628 5621 5615 5611
5631 5626 5622 5619 5617 5615 5613 5612 5612 5611 5611 5611 5611 5611 5611 5610 5609 5607 5607 5608 5608 5610 5612 5614 5615 5617 5618 5621 5623 5623 5624 5624 5625 5625 5626 5626 5626 5625 5624 5621 5616 5609 5604
5626 5621 5616 5612 5609 5606 5603 5602 5601 5601 5600 5600 5600 5600 5600 5599 5598 5597 5597 5598 5598 5600 5601 5602 5604 5606 5608 5609 5610 5610 5611 5613 5613 5614 5615 5615 5615 5615 5614 5613 5611 5607 5601
5620 5613 5608 5604 5601 5597 5594 5593 5591 5590 5589 5589 5590 5589 5588 5588 5587 5587 5587 5587 5587 5589 5590 5591 5592 5594 5595 5596 5597 5598 5599 5600 5601 5602 5603 5603 5603 5603 5603 5602 5601 5600 5597
5614 5606 5600 5596 5592 5589 5586 5584 5582 5580 5579 5579 5578 5578 5577 5577 5577 5576 5576 5576 5577 5577 5578 5579 5580 5581 5582 5583 5584 5585 5586 5588 5588 5589 5590 5590 5590 5590 5590 5590 5589 5587 5586
5607 5599 5593 5588 5584 5580 5577 5575 5573 5571 5569 5569 5568 5567 5566 5566 5565 5565 5565 5566 5566 5566 5567 5568 5569 5569 5570 5571 5572 5572 5573 5574 5575 5575 5577 5577 5578 5578 5578 5578 5577 5575 5574
5600 5591 5585 5580 5575 5572 5568 5566 5563 5561 5560 5559 5558 5557 5555 5555 5554 5554 5554 5555 5555 5555 5556 5556 5557 5557 5557 5558 5559 5560 5561 5561 5562 5563 5564 5564 5566 5566 5565 5565 5564 5564 5563
5593 5584 5577 5571 5567 5562 5559 5556 5553 5552 5551 5549 5547 5546 5545 5544 5543 5543 5543 5543 5544 5544 5544 5544 5544 5545 5546 5547 5548 5548 5548 5549 5550 5551 5552 5553 5554 5554 5553 5553 5552 5551 5550
5586 5578 5569 5562 5557 5552 5549 5546 5543 5542 5540 5539 5537 5535 5534 5533 5533 5533 5532 5532 5533 5533 5533 5533 5533 5534 5535 5535 5536 5537 5537 5538 5539 5540 5541 5542 5543 5543 5542 5542 5541 5540 5538
5581 5571 5563 5555 5549 5544 5540 5536 5533 5532 5530 5528 5527 5525 5524 5524 5523 5523 5522 5522 5522 5522 5523 5522 5522 5523 5523 5523 5525 5526 5527 5528 5528 5529 5530 5531 5531 5531 5531 5530 5530 5530 5528
5575 5565 5556 5549 5542 5536 5532 5528 5525 5523 5521 5519 5518 5516 5515 5514 5514 5513 5513 5513 5512 5512 5512 5511 5512 5512 5513 5514 5516 5517 5517 5518 5518 5519 5520 5521 5520 5520 5520 5519 5519 5518 5517
5568 5559 5550 5541 5535 5529 5525 5521 5517 5515 5512 5511 5509 5508 5507 5505 5505 5505 5504 5503 5503 5503 5502 5502 5503 5503 5504 5505 5507 5508 5508 5508 5508 5509 5510 5510 5510 5511 5511 5511 5509 5508 5507
5561 5552 5543 5535 5529 5523 5519 5515 5511 5509 5507 5505 5503 5501 5500 5498 5497 5497 5496 5495 5495 5495 5494 5494 5495 5495 5495 5497 5499 5500 5500 5499 5500 5501 5501 5502 5502 5503 5503 5503 5501 5500 5499
5553 5544 5536 5529 5523 5518 5514 5510 5506 5503 5501 5499 5497 5495 5494 5492 5491 5490 5489 5488 5488 5487 5487 5486 5487 5487 5488 5490 5492 5493 5493 5492 5493 5494 5495 5495 5496 5496 5496 5496 5495 5494 5492
5545 5538 5530 5524 5518 5513 5509 5505 5502 5499 5497 5494 5492 5490 5488 5487 5485 5484 5483 5483 5482 5481 5480 5480 5480 5481 5481 5483 5485 5486 5487 5487 5487 5488 5488 5489 5490 5491 5491 5491 5490 5488 5487
5539 5532 5525 5518 5513 5509 5506 5502 5498 5495 5493 5491 5488 5485 5484 5483 5481 5479 5478 5477 5477 5476 5475 5475 5475 5475 5476 5477 5479 5481 5482 5482 5483 5483 5484 5484 5486 5486 5486 5486 5486 5485 5485
5534 5527 5521 5514 5509 5506 5503 5499 5495 5493 5490 5487 5484 5482 5480 5478 5477 5476 5474 5473 5473 5472 5471 5471 5471 5470 5471 5473 5475 5476 5478 5479 5479 5479 5480 5482 5483 5483 5483 5482 5482 5482 5482
5530 5523 5517 5511 5506 5502 5500 5497 5494 5491 5488 5485 5482 5479 5477 5475 5474 5473 5472 5472 5471 5470 5470 5469 5468 5468 5469 5470 5471 5473 5474 5475 5476 5477 5478 5479 5479 5480 5479 5479 5479 5478 5478
5526 5520 5515 5510 5505 5501 5499 5496 5493 5490 5487 5484 5481 5478 5476 5474 5472 5471 5470 5471 5470 5470 5469 5468 5467 5467 5468 5469 5470 5470 5472 5473 5474 5475 5476 5476 5476 5477 5477 5476 5476 5475 5475
5524 5518 5513 5509 5505 5502 5499 5496 5493 5491 5487 5484 5481 5478 5475 5474 5472 5471 5470 5471 5471 5471 5470 5469 5469 5468 5469 5470 5470 5471 5471 5472 5472 5473 5473 5473 5473 5473 5473 5474 5474 5474 5473